CNH69 UKDE-UKWW

Flight info

Callsign CNH69
Flight time 1h 8m
Altitude 20000
Route KANTE KEDRO
Aircraft AN26/M-V/N

Departure

Time 2026-05-06 20:56
Airport Zaporizhzhia International Airport (UKDE)

Arrival

Time 2026-05-06 22:04
Airport Vinnytsia/Gavyryshivka International Airport (UKWW)
Time Latitude Longitude Altitude Speed Heading
2026-05-06 20:37 47.87171 35.30383 384 ft 0 kts 234°
2026-05-06 20:37 47.87154 35.30432 384 ft 0 kts 234°
2026-05-06 20:37 47.87144 35.30425 384 ft 0 kts 234°
2026-05-06 20:47 47.87135 35.30408 384 ft 4 kts 229°
2026-05-06 20:47 47.87109 35.30395 384 ft 10 kts 158°
2026-05-06 20:47 47.86986 35.30491 384 ft 31 kts 142°
2026-05-06 20:47 47.86812 35.30643 384 ft 27 kts 149°
2026-05-06 20:48 47.86644 35.30797 384 ft 30 kts 143°
2026-05-06 20:48 47.86588 35.31048 384 ft 30 kts 95°
2026-05-06 20:48 47.86582 35.31164 384 ft 0 kts 91°
2026-05-06 20:49 47.86582 35.31165 384 ft 0 kts 91°
2026-05-06 20:49 47.86578 35.31298 384 ft 22 kts 94°
2026-05-06 20:49 47.86734 35.31523 384 ft 53 kts 22°
2026-05-06 20:50 47.87058 35.31714 384 ft 23 kts 18°
2026-05-06 20:50 47.87096 35.31751 384 ft 3 kts 129°
2026-05-06 20:50 47.87057 35.31724 384 ft 0 kts 207°
2026-05-06 20:55 47.86957 35.31656 384 ft 53 kts 200°
2026-05-06 20:55 47.86380 35.31295 385 ft 120 kts 202°
2026-05-06 20:55 47.85520 35.30752 520 ft 149 kts 206°
2026-05-06 20:55 47.84582 35.29944 818 ft 163 kts 223°
2026-05-06 20:56 47.83930 35.28565 1264 ft 167 kts 247°
2026-05-06 20:56 47.83590 35.26768 1350 ft 194 kts 263°
2026-05-06 20:56 47.83684 35.24778 1682 ft 194 kts 285°
2026-05-06 20:56 47.84212 35.22883 1783 ft 202 kts 294°
2026-05-06 20:57 47.84846 35.20988 1905 ft 207 kts 298°
2026-05-06 20:57 47.85516 35.19059 2044 ft 211 kts 298°
2026-05-06 20:57 47.86199 35.17129 2188 ft 213 kts 296°
2026-05-06 20:57 47.86871 35.15154 2362 ft 214 kts 297°
2026-05-06 20:58 47.87583 35.13204 2546 ft 214 kts 297°
2026-05-06 20:58 47.88230 35.11214 2737 ft 214 kts 295°
2026-05-06 20:58 47.88878 35.09188 2945 ft 213 kts 295°
2026-05-06 20:58 47.89508 35.07206 3152 ft 213 kts 295°
2026-05-06 20:59 47.90138 35.05206 3357 ft 212 kts 295°
2026-05-06 20:59 47.90762 35.03210 3562 ft 212 kts 295°
2026-05-06 20:59 47.91379 35.01222 3790 ft 211 kts 295°
2026-05-06 20:59 47.91999 34.99213 4032 ft 209 kts 295°
2026-05-06 21:00 47.92603 34.97247 4263 ft 208 kts 295°
2026-05-06 21:00 47.93200 34.95290 4484 ft 208 kts 295°
2026-05-06 21:00 47.93795 34.93323 4680 ft 208 kts 295°
2026-05-06 21:00 47.94393 34.91336 4876 ft 209 kts 295°
2026-05-06 21:01 47.94984 34.89358 5070 ft 210 kts 295°
2026-05-06 21:01 47.95578 34.87364 5265 ft 211 kts 295°
2026-05-06 21:01 47.96175 34.85343 5462 ft 212 kts 295°
2026-05-06 21:01 47.96775 34.83337 5641 ft 214 kts 294°
2026-05-06 21:02 47.97425 34.81320 5824 ft 216 kts 295°
2026-05-06 21:02 47.98101 34.79302 6014 ft 217 kts 295°
2026-05-06 21:02 47.98777 34.77292 6207 ft 218 kts 295°
2026-05-06 21:02 47.99459 34.75240 6406 ft 219 kts 295°
2026-05-06 21:03 48.00132 34.73196 6602 ft 220 kts 295°
2026-05-06 21:03 48.00802 34.71152 6795 ft 220 kts 295°
2026-05-06 21:03 48.01482 34.69070 6992 ft 221 kts 295°
2026-05-06 21:03 48.02152 34.67014 7187 ft 221 kts 295°
2026-05-06 21:04 48.02829 34.64932 7384 ft 222 kts 295°
2026-05-06 21:04 48.03507 34.62841 7582 ft 222 kts 295°
2026-05-06 21:04 48.04175 34.60775 7777 ft 222 kts 295°
2026-05-06 21:04 48.04848 34.58685 7975 ft 223 kts 295°
2026-05-06 21:05 48.05515 34.56608 8169 ft 223 kts 295°
2026-05-06 21:05 48.06184 34.54515 8365 ft 223 kts 295°
2026-05-06 21:05 48.06856 34.52406 8563 ft 223 kts 295°
2026-05-06 21:05 48.07524 34.50306 8759 ft 224 kts 295°
2026-05-06 21:06 48.08194 34.48192 8957 ft 224 kts 295°
2026-05-06 21:06 48.08857 34.46090 9152 ft 224 kts 295°
2026-05-06 21:06 48.09526 34.43965 9349 ft 224 kts 295°
2026-05-06 21:06 48.10191 34.41845 9543 ft 224 kts 295°
2026-05-06 21:07 48.10860 34.39753 9705 ft 226 kts 296°
2026-05-06 21:07 48.11542 34.37630 9872 ft 227 kts 296°
2026-05-06 21:07 48.12227 34.35478 10045 ft 228 kts 295°
2026-05-06 21:07 48.12902 34.33332 10193 ft 230 kts 294°
2026-05-06 21:08 48.13580 34.31145 10320 ft 232 kts 294°
2026-05-06 21:08 48.14261 34.28948 10457 ft 234 kts 295°
2026-05-06 21:08 48.14940 34.26760 10599 ft 235 kts 295°
2026-05-06 21:08 48.15639 34.24513 10749 ft 236 kts 295°
2026-05-06 21:09 48.16323 34.22316 10899 ft 236 kts 295°
2026-05-06 21:09 48.17024 34.20059 11053 ft 237 kts 295°
2026-05-06 21:09 48.17720 34.17813 11205 ft 237 kts 295°
2026-05-06 21:09 48.18411 34.15582 11356 ft 237 kts 295°
2026-05-06 21:10 48.19109 34.13319 11509 ft 237 kts 295°
2026-05-06 21:10 48.19800 34.11076 11663 ft 237 kts 295°
2026-05-06 21:10 48.20486 34.08846 11815 ft 238 kts 295°
2026-05-06 21:10 48.21176 34.06601 11969 ft 238 kts 295°
2026-05-06 21:11 48.21867 34.04346 12124 ft 238 kts 295°
2026-05-06 21:11 48.22560 34.02084 12278 ft 237 kts 295°
2026-05-06 21:11 48.23239 33.99860 12429 ft 237 kts 295°
2026-05-06 21:11 48.23927 33.97607 12580 ft 237 kts 295°
2026-05-06 21:12 48.24613 33.95360 12729 ft 237 kts 295°
2026-05-06 21:12 48.25297 33.93114 12877 ft 237 kts 295°
2026-05-06 21:12 48.25982 33.90864 13024 ft 236 kts 295°
2026-05-06 21:12 48.26664 33.88620 13161 ft 237 kts 295°
2026-05-06 21:13 48.27348 33.86359 13299 ft 237 kts 295°
2026-05-06 21:13 48.28027 33.84115 13435 ft 237 kts 295°
2026-05-06 21:13 48.28704 33.81865 13571 ft 236 kts 295°
2026-05-06 21:13 48.29379 33.79623 13705 ft 236 kts 295°
2026-05-06 21:14 48.30057 33.77370 13841 ft 236 kts 295°
2026-05-06 21:14 48.30727 33.75141 13974 ft 236 kts 295°
2026-05-06 21:14 48.31400 33.72903 14106 ft 236 kts 295°
2026-05-06 21:14 48.32079 33.70644 14237 ft 235 kts 295°
2026-05-06 21:15 48.32748 33.68414 14366 ft 235 kts 295°
2026-05-06 21:15 48.33423 33.66157 14495 ft 235 kts 295°
2026-05-06 21:15 48.34088 33.63928 14621 ft 235 kts 295°
2026-05-06 21:15 48.34754 33.61696 14745 ft 234 kts 295°
2026-05-06 21:16 48.35421 33.59458 14868 ft 235 kts 295°
2026-05-06 21:16 48.36104 33.57176 15037 ft 245 kts 295°
2026-05-06 21:16 48.36814 33.54804 15238 ft 252 kts 295°
2026-05-06 21:16 48.37540 33.52367 15468 ft 257 kts 295°
2026-05-06 21:17 48.38267 33.49924 15713 ft 260 kts 295°
2026-05-06 21:17 48.39007 33.47431 15972 ft 262 kts 295°
2026-05-06 21:17 48.39751 33.44918 16241 ft 264 kts 295°
2026-05-06 21:17 48.40499 33.42386 16515 ft 265 kts 295°
2026-05-06 21:18 48.41244 33.39856 16792 ft 266 kts 295°
2026-05-06 21:18 48.41993 33.37314 17067 ft 266 kts 295°
2026-05-06 21:18 48.42750 33.34736 17344 ft 267 kts 295°
2026-05-06 21:18 48.43492 33.32198 17566 ft 269 kts 294°
2026-05-06 21:19 48.44245 33.29608 17790 ft 271 kts 294°
2026-05-06 21:19 48.45008 33.26980 18022 ft 273 kts 295°
2026-05-06 21:19 48.45769 33.24359 18258 ft 274 kts 295°
2026-05-06 21:19 48.46539 33.21705 18497 ft 275 kts 295°
2026-05-06 21:20 48.47297 33.19091 18736 ft 275 kts 295°
2026-05-06 21:20 48.48074 33.16409 18980 ft 276 kts 295°
2026-05-06 21:20 48.48835 33.13773 19219 ft 277 kts 295°
2026-05-06 21:20 48.49598 33.11122 19460 ft 277 kts 295°
2026-05-06 21:21 48.50368 33.08446 19703 ft 277 kts 295°
2026-05-06 21:21 48.51134 33.05780 19945 ft 278 kts 295°
2026-05-06 21:21 48.51908 33.03086 20189 ft 278 kts 295°
2026-05-06 21:21 48.52669 33.00445 20428 ft 278 kts 295°
2026-05-06 21:22 48.53444 32.97751 20669 ft 278 kts 295°
2026-05-06 21:22 48.54210 32.95090 20909 ft 278 kts 295°
2026-05-06 21:22 48.54991 32.92375 21151 ft 278 kts 295°
2026-05-06 21:22 48.55754 32.89723 21388 ft 278 kts 295°
2026-05-06 21:23 48.56530 32.87027 21626 ft 278 kts 295°
2026-05-06 21:23 48.57291 32.84375 21858 ft 278 kts 295°
2026-05-06 21:23 48.58064 32.81681 22092 ft 278 kts 295°
2026-05-06 21:23 48.58824 32.79022 22322 ft 277 kts 295°
2026-05-06 21:24 48.59582 32.76365 22548 ft 277 kts 295°
2026-05-06 21:24 48.60344 32.73686 22774 ft 277 kts 295°
2026-05-06 21:24 48.61104 32.71002 22999 ft 276 kts 295°
2026-05-06 21:24 48.61849 32.68364 23217 ft 276 kts 295°
2026-05-06 21:25 48.62598 32.65705 23379 ft 275 kts 295°
2026-05-06 21:25 48.63350 32.63026 23353 ft 273 kts 295°
2026-05-06 21:25 48.64081 32.60407 23417 ft 268 kts 295°
2026-05-06 21:25 48.64796 32.57850 23382 ft 268 kts 295°
2026-05-06 21:26 48.65533 32.55214 23327 ft 268 kts 295°
2026-05-06 21:26 48.66252 32.52647 23394 ft 264 kts 295°
2026-05-06 21:26 48.66967 32.50099 23389 ft 263 kts 295°
2026-05-06 21:26 48.67680 32.47552 23322 ft 265 kts 295°
2026-05-06 21:27 48.68385 32.45026 23385 ft 261 kts 295°
2026-05-06 21:27 48.69093 32.42489 23412 ft 259 kts 295°
2026-05-06 21:27 48.69792 32.39983 23350 ft 261 kts 295°
2026-05-06 21:27 48.70492 32.37471 23382 ft 258 kts 295°
2026-05-06 21:28 48.71187 32.34972 23425 ft 256 kts 295°
2026-05-06 21:28 48.71876 32.32490 23323 ft 260 kts 294°
2026-05-06 21:28 48.72573 32.29958 23364 ft 256 kts 294°
2026-05-06 21:28 48.73245 32.27514 23457 ft 252 kts 294°
2026-05-06 21:29 48.73927 32.25037 23384 ft 255 kts 295°
2026-05-06 21:29 48.74616 32.22543 23353 ft 256 kts 295°
2026-05-06 21:29 48.75293 32.20092 23412 ft 253 kts 295°
2026-05-06 21:29 48.75929 32.17794 23413 ft 253 kts 295°
2026-05-06 21:30 48.76617 32.15308 23343 ft 255 kts 295°
2026-05-06 21:30 48.77301 32.12834 23398 ft 252 kts 295°
2026-05-06 21:30 48.77976 32.10384 23423 ft 251 kts 295°
2026-05-06 21:30 48.78651 32.07935 23351 ft 254 kts 295°
2026-05-06 21:31 48.79330 32.05471 23385 ft 252 kts 295°
2026-05-06 21:31 48.79998 32.03047 23432 ft 250 kts 295°
2026-05-06 21:31 48.80676 32.00586 23359 ft 253 kts 295°
2026-05-06 21:31 48.81354 31.98123 23364 ft 252 kts 295°
2026-05-06 21:32 48.82028 31.95672 23428 ft 250 kts 295°
2026-05-06 21:32 48.83384 31.90756 23371 ft 258 kts 295°
2026-05-06 21:32 48.84089 31.88211 23459 ft 265 kts 294°
2026-05-06 21:33 48.84448 31.85428 23397 ft 278 kts 269°
2026-05-06 21:33 48.84491 31.82463 23392 ft 281 kts 281°
2026-05-06 21:33 48.84780 31.79544 23358 ft 278 kts 277°
2026-05-06 21:33 48.84977 31.76651 23315 ft 275 kts 277°
2026-05-06 21:34 48.85175 31.73795 23232 ft 274 kts 278°
2026-05-06 21:34 48.85381 31.70911 23190 ft 272 kts 278°
2026-05-06 21:34 48.85579 31.68082 23252 ft 266 kts 278°
2026-05-06 21:34 48.85769 31.65312 23244 ft 263 kts 278°
2026-05-06 21:35 48.85955 31.62544 23220 ft 262 kts 277°
2026-05-06 21:35 48.86139 31.59788 23234 ft 258 kts 278°
2026-05-06 21:35 48.86321 31.57074 23232 ft 256 kts 278°
2026-05-06 21:35 48.86500 31.54409 23238 ft 254 kts 278°
2026-05-06 21:36 48.86680 31.51755 23232 ft 252 kts 278°
2026-05-06 21:36 48.86857 31.49121 23236 ft 250 kts 278°
2026-05-06 21:36 48.87032 31.46497 23233 ft 249 kts 278°
2026-05-06 21:36 48.87206 31.43881 23241 ft 247 kts 278°
2026-05-06 21:37 48.87377 31.41307 23231 ft 246 kts 278°
2026-05-06 21:37 48.87547 31.38733 23240 ft 245 kts 278°
2026-05-06 21:37 48.87719 31.36144 23231 ft 244 kts 278°
2026-05-06 21:37 48.87892 31.33543 23225 ft 243 kts 277°
2026-05-06 21:38 48.88059 31.30997 23206 ft 242 kts 277°
2026-05-06 21:38 48.88224 31.28464 23265 ft 239 kts 277°
2026-05-06 21:38 48.88386 31.25980 23249 ft 239 kts 277°
2026-05-06 21:38 48.88552 31.23445 23192 ft 241 kts 277°
2026-05-06 21:39 48.88717 31.20926 23250 ft 237 kts 277°
2026-05-06 21:39 48.88878 31.18450 23270 ft 235 kts 277°
2026-05-06 21:39 48.89038 31.15982 23210 ft 238 kts 277°
2026-05-06 21:39 48.89196 31.13462 23225 ft 236 kts 277°
2026-05-06 21:40 48.89344 31.11013 23262 ft 234 kts 277°
2026-05-06 21:40 48.89492 31.08532 23191 ft 236 kts 277°
2026-05-06 21:40 48.89635 31.06071 23182 ft 236 kts 277°
2026-05-06 21:40 48.89777 31.03592 23205 ft 234 kts 277°
2026-05-06 21:41 48.89922 31.01097 23227 ft 239 kts 277°
2026-05-06 21:41 48.90073 30.98569 23229 ft 244 kts 277°
2026-05-06 21:41 48.90231 30.95973 23223 ft 250 kts 277°
2026-05-06 21:41 48.90397 30.93286 23216 ft 255 kts 277°
2026-05-06 21:42 48.90564 30.90582 23213 ft 259 kts 277°
2026-05-06 21:42 48.90736 30.87831 23212 ft 263 kts 277°
2026-05-06 21:42 48.90914 30.85022 23209 ft 266 kts 277°
2026-05-06 21:42 48.91091 30.82234 23215 ft 268 kts 277°
2026-05-06 21:43 48.91270 30.79403 23209 ft 271 kts 277°
2026-05-06 21:43 48.91453 30.76519 23210 ft 273 kts 277°
2026-05-06 21:43 48.91638 30.73613 23213 ft 275 kts 277°
2026-05-06 21:43 48.91822 30.70724 23213 ft 277 kts 277°
2026-05-06 21:44 48.92009 30.67797 23210 ft 278 kts 277°
2026-05-06 21:44 48.92198 30.64835 23215 ft 279 kts 277°
2026-05-06 21:44 48.92386 30.61892 23207 ft 280 kts 277°
2026-05-06 21:44 48.92572 30.58965 23217 ft 281 kts 277°
2026-05-06 21:45 48.92762 30.55976 23203 ft 282 kts 277°
2026-05-06 21:45 48.92949 30.53022 23220 ft 282 kts 277°
2026-05-06 21:45 48.93138 30.50053 23205 ft 284 kts 278°
2026-05-06 21:45 48.93326 30.47076 23218 ft 283 kts 277°
2026-05-06 21:46 48.93518 30.44063 23209 ft 284 kts 278°
2026-05-06 21:46 48.93708 30.41087 23210 ft 285 kts 278°
2026-05-06 21:46 48.93899 30.38109 23218 ft 285 kts 278°
2026-05-06 21:46 48.94092 30.35077 23201 ft 286 kts 278°
2026-05-06 21:47 48.94280 30.32103 23177 ft 287 kts 277°
2026-05-06 21:47 48.94471 30.29053 23221 ft 285 kts 277°
2026-05-06 21:47 48.94656 30.26096 23255 ft 284 kts 277°
2026-05-06 21:47 48.94848 30.23072 23163 ft 288 kts 277°
2026-05-06 21:48 48.95039 30.20040 23226 ft 285 kts 277°
2026-05-06 21:48 48.95226 30.17060 23240 ft 285 kts 277°
2026-05-06 21:48 48.95419 30.14012 23161 ft 288 kts 277°
2026-05-06 21:48 48.95605 30.11035 23237 ft 285 kts 277°
2026-05-06 21:49 48.95795 30.08011 23226 ft 286 kts 277°
2026-05-06 21:49 48.95987 30.04964 23162 ft 288 kts 277°
2026-05-06 21:49 48.96172 30.01968 23084 ft 280 kts 277°
2026-05-06 21:49 48.96348 29.99053 22875 ft 273 kts 277°
2026-05-06 21:50 48.96430 29.96215 22637 ft 268 kts 266°
2026-05-06 21:50 48.95956 29.93481 22380 ft 266 kts 255°
2026-05-06 21:50 48.95409 29.90801 22053 ft 265 kts 255°
2026-05-06 21:50 48.94875 29.88123 21739 ft 270 kts 255°
2026-05-06 21:51 48.94304 29.85354 21435 ft 274 kts 254°
2026-05-06 21:51 48.93721 29.82614 21155 ft 277 kts 254°
2026-05-06 21:51 48.93118 29.79823 20884 ft 279 kts 254°
2026-05-06 21:51 48.92511 29.77012 20625 ft 280 kts 254°
2026-05-06 21:52 48.91907 29.74194 20336 ft 282 kts 254°
2026-05-06 21:52 48.91299 29.71341 20038 ft 284 kts 254°
2026-05-06 21:52 48.90686 29.68452 19748 ft 286 kts 254°
2026-05-06 21:52 48.90081 29.65601 19431 ft 284 kts 254°
2026-05-06 21:53 48.89473 29.62751 18825 ft 281 kts 254°
2026-05-06 21:53 48.88874 29.59965 18199 ft 279 kts 254°
2026-05-06 21:53 48.88278 29.57187 17575 ft 277 kts 254°
2026-05-06 21:53 48.87754 29.54418 16970 ft 273 kts 264°
2026-05-06 21:54 48.87903 29.51613 16422 ft 264 kts 288°
2026-05-06 21:54 48.88587 29.49084 15943 ft 256 kts 297°
2026-05-06 21:54 48.89331 29.46644 15371 ft 255 kts 296°
2026-05-06 21:54 48.91052 29.40944 13966 ft 255 kts 298°
2026-05-06 21:55 48.92112 29.37572 13145 ft 253 kts 298°
2026-05-06 21:55 48.93613 29.32798 11893 ft 256 kts 297°
2026-05-06 21:55 48.95149 29.27869 10460 ft 261 kts 297°
2026-05-06 21:55 48.96688 29.22979 9090 ft 260 kts 297°
2026-05-06 21:56 48.98260 29.18089 7724 ft 257 kts 297°
2026-05-06 21:56 48.99853 29.13271 6324 ft 255 kts 297°
2026-05-06 21:56 49.01457 29.08570 4965 ft 251 kts 297°
2026-05-06 21:56 49.02519 29.05536 4086 ft 248 kts 297°
2026-05-06 21:57 49.03324 29.03272 3449 ft 245 kts 297°
2026-05-06 21:57 49.04125 29.01048 3047 ft 233 kts 297°
2026-05-06 21:57 49.05006 28.98637 2603 ft 221 kts 297°
2026-05-06 21:57 49.05739 28.96648 2462 ft 201 kts 297°
2026-05-06 21:58 49.06390 28.94905 2361 ft 182 kts 297°
2026-05-06 21:58 49.07016 28.93249 2227 ft 185 kts 297°
2026-05-06 21:58 49.07704 28.91439 2188 ft 209 kts 298°
2026-05-06 21:58 49.08460 28.89434 2220 ft 222 kts 297°
2026-05-06 21:59 49.09214 28.87417 2172 ft 208 kts 297°
2026-05-06 21:59 49.09893 28.85562 2377 ft 187 kts 295°
2026-05-06 21:59 49.10518 28.83939 2638 ft 174 kts 301°
2026-05-06 21:59 49.11178 28.82404 2680 ft 172 kts 300°
2026-05-06 22:00 49.11785 28.80817 2735 ft 173 kts 294°
2026-05-06 22:00 49.12314 28.79192 2852 ft 167 kts 294°
2026-05-06 22:00 49.12816 28.77731 3189 ft 152 kts 297°
2026-05-06 22:00 49.13397 28.76345 3271 ft 159 kts 300°
2026-05-06 22:01 49.14083 28.74984 3375 ft 163 kts 310°
2026-05-06 22:01 49.15002 28.73955 3477 ft 167 kts 324°
2026-05-06 22:01 49.15982 28.72908 3485 ft 168 kts 319°
2026-05-06 22:01 49.16804 28.71794 3315 ft 143 kts 314°
2026-05-06 22:02 49.17542 28.70776 3062 ft 150 kts 315°
2026-05-06 22:02 49.18337 28.69685 2930 ft 157 kts 316°
2026-05-06 22:02 49.19145 28.68531 2733 ft 160 kts 313°
2026-05-06 22:02 49.19926 28.67401 2482 ft 151 kts 315°
2026-05-06 22:03 49.20721 28.66327 2163 ft 156 kts 314°
2026-05-06 22:03 49.21483 28.65239 1740 ft 144 kts 314°
2026-05-06 22:03 49.22228 28.64162 1407 ft 155 kts 315°
2026-05-06 22:03 49.23026 28.63057 1133 ft 152 kts 315°
2026-05-06 22:04 49.23784 28.62017 984 ft 134 kts 315°
2026-05-06 22:04 49.24357 28.61233 983 ft 78 kts 320°
2026-05-06 22:04 49.24552 28.60972 983 ft 14 kts 328°
2026-05-06 22:04 49.24603 28.60890 983 ft 21 kts 280°
2026-05-06 22:05 49.24707 28.60725 983 ft 29 kts 327°
2026-05-06 22:05 49.24762 28.60604 983 ft 6 kts 246°
2026-05-06 22:05 49.24696 28.60502 983 ft 8 kts 236°
2026-05-06 22:05 49.24617 28.60499 983 ft 19 kts 140°
2026-05-06 22:06 49.24544 28.60598 983 ft 8 kts 142°
2026-05-06 22:06 49.24466 28.60739 983 ft 22 kts 140°
2026-05-06 22:06 49.24377 28.60831 983 ft 6 kts 145°
2026-05-06 22:06 49.24337 28.60775 983 ft 7 kts 277°
2026-05-06 22:07 49.24364 28.60722 983 ft 19 kts 311°
2026-05-06 22:07 49.24371 28.60658 983 ft 2 kts 217°
2026-05-06 22:07 49.24365 28.60645 983 ft 2 kts 237°
2026-05-06 22:07 49.24362 28.60637 983 ft 0 kts 233°